FENGYUN 1C DEB, 30454

Orbit data source: Space-Track

FENGYUN 1C DEB, 30454 is space debris in SSO originally from a launch on Mon, 10 May 1999 UTC launched from the Taiyaun Space Center, China (TSC). Fengyun 1C debris stems from the Chinese weather satellite Fengyun-1C, which was intentionally destroyed by a Chinese anti-satellite missile in 2007. This event dramatically increased the amount of space debris, with thousands of trackable fragments posing hazards to satellites and human spaceflight. The Fengyun 1C debris cloud has become a focal point in discussions about space sustainability and the need for international regulations to prevent the creation of new debris.

Loading next visibility...
Identifier
30454, 1999-025AFR
Orbit
SSO
Country
Flag of CNCN / PRC
Related business
Manufacturer
Unknown
Mission
Spacecraft
Bus & Motor
Unknown
Mass
Unknown
Launch date (UTC)
1999-05-10 (27 years ago)
Launch vehicle
Unknown
Launch site
Taiyaun Space Center, China (TSC)
Object type
Payload
Rocket body
Debris
Shape & HBR
Unknown shape, 0.1 m
Radar Cross Section
Medium (>0.1 m² and <1 m²)

Expand to show TLE details & history
Last TLE update: 2 days ago

TLE from 2 days ago
0 FENGYUN 1C DEB
1 30454U 99025AFR 26206.86623226  .00003360  00000-0  14532-2 0  9991
2 30454  98.1325 163.0824 0164283 259.6118 124.2733 14.17990524991481
Epoch: 2026-07-25T20:47Z
TLE epoch observation values (Epoch: 2026-07-25T20:47:22.467Z)
Latitude
25.17833°
Longitude
-96.16529°
Altitude
903.248 km
Speed
7.368 km/s
True Right ascension
10h 37m 00s
True Declination
25° 02' 56"
Sunlit
Object was in daylight at epoch
Visualization orbit readout
Latitude
Unknown
Longitude
Unknown
Altitude
Unknown
Speed
Unknown
Apparent Right ascension
Unknown
Apparent Declination
Unknown
Sunlit
N/A
Visualization observer readout
Local Sidereal Time
00:28:55
Azimuth
Unknown
Elevation
Unknown
Doppler factor
Unknown
Orbital elements
Apogee altitude
947.696 km
Perigee altitude
710.884 km
Semi-major axis
7,207.427 km
Eccentricity
0.01643
Inclination
98.1325°
RAAN
163.0824°
Arg. of periapsis
259.6118°
True anomaly
125.81098°
Mean anomaly
124.2733°
Eccentric anomaly
125.04393°
Mean motion
3.54709 °/min
Orbital period
101.49 mins
BSTAR
0.0014532
Loading maneuver chart data...
Computing Atmospheric mass density...

Documentation

Showing up to 5 results
|